JAT668 SCSE-SCAR

Flight info

Callsign JAT668
Flight time 1h 49m
Altitude 38000
Route VUGUS4 VUGUS UQ802 SIRAM SIRAM3B
Aircraft A20N/M-SDE2E3FGHIRWXY/LB1

Departure

Time 2026-04-17 04:48
Airport La Florida Airport (SCSE)

Arrival

Time 2026-04-17 06:38
Airport Chacalluta International Airport (SCAR)
Time Latitude Longitude Altitude Speed Heading
2026-04-17 04:26 -29.91665 -71.20341 488 ft 0 kts 207°
2026-04-17 04:39 -29.91665 -71.20342 488 ft 0 kts 207°
2026-04-17 04:39 -29.91669 -71.20342 488 ft 1 kts 175°
2026-04-17 04:39 -29.91672 -71.20332 488 ft 2 kts 68°
2026-04-17 04:40 -29.91659 -71.20309 488 ft 4 kts 65°
2026-04-17 04:40 -29.91661 -71.20264 488 ft 7 kts 113°
2026-04-17 04:40 -29.91677 -71.20211 488 ft 6 kts 98°
2026-04-17 04:40 -29.91669 -71.20163 488 ft 4 kts 57°
2026-04-17 04:41 -29.91665 -71.20158 488 ft 0 kts 51°
2026-04-17 04:44 -29.91664 -71.20157 488 ft 0 kts 48°
2026-04-17 04:44 -29.91653 -71.20148 487 ft 4 kts 31°
2026-04-17 04:44 -29.91614 -71.20118 488 ft 7 kts 49°
2026-04-17 04:44 -29.91604 -71.20056 488 ft 10 kts 116°
2026-04-17 04:45 -29.91642 -71.19969 488 ft 14 kts 116°
2026-04-17 04:45 -29.91690 -71.19856 488 ft 17 kts 116°
2026-04-17 04:45 -29.91747 -71.19722 488 ft 20 kts 116°
2026-04-17 04:45 -29.91813 -71.19569 488 ft 22 kts 115°
2026-04-17 04:46 -29.91882 -71.19404 488 ft 23 kts 116°
2026-04-17 04:46 -29.91952 -71.19240 488 ft 22 kts 115°
2026-04-17 04:46 -29.92016 -71.19137 488 ft 11 kts 140°
2026-04-17 04:46 -29.92044 -71.19080 488 ft 6 kts 68°
2026-04-17 04:47 -29.92011 -71.19088 488 ft 7 kts 290°
2026-04-17 04:47 -29.91997 -71.19132 488 ft 0 kts 295°
2026-04-17 04:47 -29.91995 -71.19136 488 ft 5 kts 295°
2026-04-17 04:48 -29.91861 -71.19453 488 ft 84 kts 296°
2026-04-17 04:48 -29.91499 -71.20310 490 ft 150 kts 295°
2026-04-17 04:48 -29.91015 -71.21484 969 ft 164 kts 297°
2026-04-17 04:48 -29.90523 -71.22633 1711 ft 164 kts 297°
2026-04-17 04:49 -29.89965 -71.23758 2406 ft 164 kts 317°
2026-04-17 04:49 -29.88928 -71.24239 2788 ft 171 kts
2026-04-17 04:49 -29.87847 -71.23689 3183 ft 180 kts 48°
2026-04-17 04:49 -29.87043 -71.22518 3620 ft 195 kts 52°
2026-04-17 04:50 -29.85849 -71.21626 3977 ft 222 kts 18°
2026-04-17 04:50 -29.84636 -71.21343 4280 ft 241 kts
2026-04-17 04:50 -29.82895 -71.21106 4784 ft 262 kts
2026-04-17 04:50 -29.81064 -71.20853 5436 ft 276 kts
2026-04-17 04:51 -29.79129 -71.20538 6406 ft 278 kts
2026-04-17 04:51 -29.77195 -71.20184 7384 ft 279 kts
2026-04-17 04:51 -29.75309 -71.19815 8293 ft 281 kts
2026-04-17 04:51 -29.73380 -71.19422 9144 ft 285 kts
2026-04-17 04:52 -29.71432 -71.19015 9976 ft 289 kts
2026-04-17 04:52 -29.69465 -71.18597 10709 ft 296 kts
2026-04-17 04:52 -29.67405 -71.18161 11375 ft 305 kts
2026-04-17 04:52 -29.65344 -71.17723 12236 ft 305 kts
2026-04-17 04:53 -29.63245 -71.17275 13052 ft 308 kts
2026-04-17 04:53 -29.61095 -71.16817 13796 ft 313 kts
2026-04-17 04:53 -29.58950 -71.16361 14513 ft 317 kts
2026-04-17 04:55 -29.42960 -71.12962 19143 ft 348 kts
2026-04-17 04:55 -29.40542 -71.12450 19743 ft 352 kts
2026-04-17 04:55 -29.39046 -71.12134 20110 ft 355 kts
2026-04-17 04:56 -29.36590 -71.11613 20694 ft 359 kts
2026-04-17 04:56 -29.34142 -71.11095 21237 ft 364 kts
2026-04-17 04:56 -29.31633 -71.10564 21793 ft 369 kts
2026-04-17 04:56 -29.29764 -71.10169 22220 ft 371 kts
2026-04-17 04:57 -29.27273 -71.09641 22779 ft 375 kts
2026-04-17 04:57 -29.24724 -71.09103 23316 ft 379 kts
2026-04-17 04:57 -29.22130 -71.08554 23847 ft 383 kts
2026-04-17 04:57 -29.19497 -71.07999 24364 ft 387 kts
2026-04-17 04:58 -29.16837 -71.07438 24885 ft 390 kts
2026-04-17 04:58 -29.14181 -71.06879 25411 ft 393 kts
2026-04-17 04:58 -29.11472 -71.06307 25936 ft 396 kts
2026-04-17 04:58 -29.08764 -71.05736 26441 ft 398 kts
2026-04-17 04:59 -29.06068 -71.05167 26925 ft 401 kts
2026-04-17 04:59 -29.03314 -71.04588 27400 ft 404 kts
2026-04-17 04:59 -29.00551 -71.04006 27857 ft 406 kts
2026-04-17 04:59 -28.97788 -71.03423 28296 ft 408 kts
2026-04-17 05:00 -28.95005 -71.02837 28726 ft 411 kts
2026-04-17 05:00 -28.92210 -71.02248 29127 ft 413 kts
2026-04-17 05:00 -28.89372 -71.01653 29520 ft 415 kts
2026-04-17 05:00 -28.86513 -71.01052 29901 ft 417 kts
2026-04-17 05:01 -28.83686 -71.00459 30271 ft 419 kts
2026-04-17 05:01 -28.80814 -70.99858 30602 ft 421 kts
2026-04-17 05:01 -28.77920 -70.99252 30908 ft 424 kts
2026-04-17 05:01 -28.75042 -70.98650 31192 ft 427 kts
2026-04-17 05:02 -28.72147 -70.98044 31480 ft 429 kts
2026-04-17 05:02 -28.69177 -70.97421 31770 ft 431 kts
2026-04-17 05:02 -28.66247 -70.96807 32050 ft 433 kts
2026-04-17 05:02 -28.63310 -70.96190 32320 ft 436 kts
2026-04-17 05:03 -28.60316 -70.95561 32583 ft 438 kts
2026-04-17 05:03 -28.57327 -70.94936 32839 ft 440 kts
2026-04-17 05:03 -28.54306 -70.94305 33085 ft 442 kts
2026-04-17 05:03 -28.51317 -70.93694 33320 ft 443 kts
2026-04-17 05:04 -28.48270 -70.93229 33583 ft 442 kts
2026-04-17 05:04 -28.45229 -70.92902 33906 ft 441 kts
2026-04-17 05:04 -28.42167 -70.92587 34234 ft 440 kts
2026-04-17 05:04 -28.39140 -70.92274 34557 ft 439 kts
2026-04-17 05:05 -28.36118 -70.91960 34883 ft 438 kts
2026-04-17 05:05 -28.33101 -70.91647 35208 ft 437 kts
2026-04-17 05:05 -28.30058 -70.91331 35528 ft 435 kts
2026-04-17 05:05 -28.27060 -70.91020 35831 ft 434 kts
2026-04-17 05:06 -28.24015 -70.90702 36127 ft 433 kts
2026-04-17 05:06 -28.20978 -70.90382 36405 ft 432 kts
2026-04-17 05:06 -28.17987 -70.90065 36657 ft 431 kts
2026-04-17 05:06 -28.14990 -70.89747 36897 ft 431 kts
2026-04-17 05:07 -28.11968 -70.89426 37127 ft 430 kts
2026-04-17 05:07 -28.09003 -70.89111 37350 ft 430 kts
2026-04-17 05:07 -28.05992 -70.88792 37526 ft 430 kts
2026-04-17 05:07 -28.02980 -70.88473 37662 ft 432 kts
2026-04-17 05:08 -27.99965 -70.88154 37805 ft 433 kts
2026-04-17 05:08 -27.96928 -70.87832 37975 ft 433 kts
2026-04-17 05:08 -27.90882 -70.87190 38076 ft 434 kts
2026-04-17 05:09 -27.84780 -70.86543 38083 ft 433 kts
2026-04-17 05:09 -27.78755 -70.85905 38084 ft 433 kts
2026-04-17 05:10 -27.72725 -70.85268 38084 ft 433 kts
2026-04-17 05:10 -27.66642 -70.84626 38084 ft 433 kts
2026-04-17 05:11 -27.60619 -70.83991 38084 ft 433 kts
2026-04-17 05:11 -27.54597 -70.83355 38084 ft 433 kts
2026-04-17 05:12 -27.48602 -70.82725 38084 ft 433 kts
2026-04-17 05:12 -27.42569 -70.82090 38084 ft 433 kts
2026-04-17 05:13 -27.36554 -70.81458 38084 ft 433 kts
2026-04-17 05:13 -27.30559 -70.80829 38084 ft 432 kts
2026-04-17 05:14 -27.24526 -70.80196 38084 ft 432 kts
2026-04-17 05:14 -27.18539 -70.79569 38084 ft 432 kts
2026-04-17 05:15 -27.12544 -70.78942 38084 ft 432 kts
2026-04-17 05:15 -27.06561 -70.78315 38084 ft 432 kts
2026-04-17 05:16 -27.00533 -70.77686 38084 ft 432 kts
2026-04-17 05:16 -26.94502 -70.77055 38084 ft 432 kts 360°
2026-04-17 05:17 -26.88503 -70.76430 38085 ft 432 kts
2026-04-17 05:17 -26.82451 -70.75797 38084 ft 431 kts 360°
2026-04-17 05:18 -26.76421 -70.75166 38084 ft 432 kts 360°
2026-04-17 05:18 -26.70431 -70.74542 38084 ft 432 kts 360°
2026-04-17 05:19 -26.64417 -70.73762 38084 ft 434 kts
2026-04-17 05:19 -26.58383 -70.72731 38084 ft 434 kts
2026-04-17 05:20 -26.52386 -70.71699 38084 ft 434 kts
2026-04-17 05:20 -26.46403 -70.70680 38084 ft 434 kts
2026-04-17 05:21 -26.40389 -70.70006 38084 ft 431 kts 359°
2026-04-17 05:21 -26.34407 -70.69491 38084 ft 431 kts 358°
2026-04-17 05:22 -26.28432 -70.68971 38085 ft 431 kts 358°
2026-04-17 05:22 -26.22416 -70.68445 38084 ft 430 kts 358°
2026-04-17 05:23 -26.16468 -70.67921 38084 ft 430 kts 358°
2026-04-17 05:23 -26.10496 -70.67399 38084 ft 430 kts 358°
2026-04-17 05:24 -26.04514 -70.66875 38084 ft 430 kts 358°
2026-04-17 05:24 -25.98509 -70.66347 38088 ft 430 kts 358°
2026-04-17 05:25 -25.92551 -70.65823 38085 ft 428 kts 358°
2026-04-17 05:25 -25.86568 -70.65301 38084 ft 428 kts 358°
2026-04-17 05:26 -25.80574 -70.64777 38077 ft 428 kts 358°
2026-04-17 05:26 -25.74570 -70.64253 38068 ft 427 kts 358°
2026-04-17 05:27 -25.68634 -70.63734 38063 ft 427 kts 358°
2026-04-17 05:27 -25.62680 -70.63213 38060 ft 426 kts 358°
2026-04-17 05:28 -25.56725 -70.62691 38060 ft 425 kts 358°
2026-04-17 05:28 -25.50810 -70.62172 38059 ft 425 kts 358°
2026-04-17 05:29 -25.44860 -70.61653 38059 ft 425 kts 358°
2026-04-17 05:29 -25.38941 -70.61147 38060 ft 425 kts 357°
2026-04-17 05:30 -25.33015 -70.60644 38060 ft 424 kts 357°
2026-04-17 05:30 -25.27135 -70.60140 38060 ft 424 kts 357°
2026-04-17 05:31 -25.21260 -70.59634 38060 ft 423 kts 357°
2026-04-17 05:31 -25.15384 -70.59127 38061 ft 422 kts 357°
2026-04-17 05:32 -25.09488 -70.58618 38060 ft 422 kts 357°
2026-04-17 05:32 -25.03600 -70.58110 38060 ft 421 kts 357°
2026-04-17 05:33 -24.97745 -70.57604 38060 ft 420 kts 357°
2026-04-17 05:33 -24.91881 -70.57096 38060 ft 420 kts 357°
2026-04-17 05:34 -24.86002 -70.56587 38061 ft 420 kts 357°
2026-04-17 05:34 -24.80129 -70.56134 38059 ft 417 kts 354°
2026-04-17 05:35 -24.74286 -70.56124 38060 ft 413 kts 352°
2026-04-17 05:35 -24.68504 -70.56166 38060 ft 413 kts 352°
2026-04-17 05:36 -24.62713 -70.56204 38061 ft 412 kts 352°
2026-04-17 05:36 -24.57008 -70.56239 38060 ft 412 kts 352°
2026-04-17 05:37 -24.51253 -70.56274 38060 ft 411 kts 352°
2026-04-17 05:37 -24.45521 -70.56309 38059 ft 410 kts 352°
2026-04-17 05:38 -24.39777 -70.56341 38060 ft 410 kts 352°
2026-04-17 05:38 -24.34051 -70.56373 38060 ft 410 kts 352°
2026-04-17 05:39 -24.28319 -70.56402 38060 ft 409 kts 352°
2026-04-17 05:39 -24.22549 -70.56434 38061 ft 409 kts 352°
2026-04-17 05:40 -24.16812 -70.56477 38060 ft 408 kts 351°
2026-04-17 05:40 -24.11069 -70.56521 38060 ft 408 kts 351°
2026-04-17 05:41 -24.05333 -70.56558 38060 ft 408 kts 351°
2026-04-17 05:41 -23.99687 -70.56592 38060 ft 408 kts 351°
2026-04-17 05:42 -23.94040 -70.56621 38060 ft 406 kts 351°
2026-04-17 05:42 -23.88317 -70.56651 38061 ft 406 kts 351°
2026-04-17 05:43 -23.82655 -70.56677 38060 ft 406 kts 351°
2026-04-17 05:43 -23.77015 -70.56698 38060 ft 406 kts 352°
2026-04-17 05:44 -23.71333 -70.56680 38060 ft 406 kts 352°
2026-04-17 05:44 -23.65684 -70.56657 38060 ft 406 kts 352°
2026-04-17 05:45 -23.60045 -70.56634 38060 ft 405 kts 352°
2026-04-17 05:45 -23.54409 -70.56609 38060 ft 405 kts 352°
2026-04-17 05:46 -23.48595 -70.56584 38060 ft 405 kts 352°
2026-04-17 05:46 -23.42921 -70.56561 38060 ft 406 kts 352°
2026-04-17 05:47 -23.37181 -70.56535 38060 ft 406 kts 352°
2026-04-17 05:47 -23.31449 -70.56510 38061 ft 406 kts 352°
2026-04-17 05:48 -23.25763 -70.56485 38060 ft 405 kts 352°
2026-04-17 05:48 -23.20027 -70.56458 38060 ft 405 kts 352°
2026-04-17 05:49 -23.14335 -70.56433 38059 ft 405 kts 352°
2026-04-17 05:49 -23.08601 -70.56408 38060 ft 406 kts 352°
2026-04-17 05:50 -23.02915 -70.56380 38060 ft 406 kts 352°
2026-04-17 05:50 -22.97197 -70.56348 38060 ft 406 kts 352°
2026-04-17 05:51 -22.91500 -70.56319 38060 ft 406 kts 352°
2026-04-17 05:51 -22.85835 -70.56272 38061 ft 406 kts 352°
2026-04-17 05:52 -22.80181 -70.56168 38060 ft 406 kts 353°
2026-04-17 05:52 -22.74518 -70.56059 38060 ft 406 kts 353°
2026-04-17 05:53 -22.68901 -70.55952 38059 ft 407 kts 353°
2026-04-17 05:53 -22.63180 -70.55843 38060 ft 408 kts 353°
2026-04-17 05:54 -22.57447 -70.55733 38060 ft 408 kts 353°
2026-04-17 05:54 -22.51709 -70.55624 38060 ft 408 kts 353°
2026-04-17 05:55 -22.45979 -70.55514 38060 ft 408 kts 353°
2026-04-17 05:55 -22.40201 -70.55404 38060 ft 408 kts 353°
2026-04-17 05:56 -22.34502 -70.55295 38060 ft 408 kts 353°
2026-04-17 05:56 -22.28745 -70.55185 38060 ft 408 kts 353°
2026-04-17 05:57 -22.23027 -70.55076 38060 ft 408 kts 353°
2026-04-17 05:57 -22.17318 -70.54966 38060 ft 408 kts 353°
2026-04-17 05:58 -22.11564 -70.54855 38060 ft 408 kts 353°
2026-04-17 05:59 -22.02946 -70.54687 38060 ft 408 kts 353°
2026-04-17 05:59 -21.97221 -70.54572 38060 ft 408 kts 353°
2026-04-17 06:00 -21.91467 -70.54459 38060 ft 409 kts 353°
2026-04-17 06:00 -21.85697 -70.54387 38060 ft 408 kts 352°
2026-04-17 06:01 -21.79960 -70.54370 38060 ft 408 kts 352°
2026-04-17 06:01 -21.74259 -70.54346 38060 ft 408 kts 352°
2026-04-17 06:02 -21.68562 -70.54315 38064 ft 408 kts 352°
2026-04-17 06:02 -21.62849 -70.54281 38075 ft 408 kts 352°
2026-04-17 06:03 -21.57113 -70.54247 38091 ft 407 kts 352°
2026-04-17 06:03 -21.51371 -70.54211 38103 ft 406 kts 352°
2026-04-17 06:04 -21.45654 -70.54174 38109 ft 406 kts 352°
2026-04-17 06:04 -21.39884 -70.54136 38111 ft 407 kts 352°
2026-04-17 06:05 -21.34145 -70.54103 38113 ft 407 kts 352°
2026-04-17 06:05 -21.28567 -70.54085 38112 ft 406 kts 352°
2026-04-17 06:06 -21.22894 -70.54060 38112 ft 406 kts 352°
2026-04-17 06:06 -21.17190 -70.54030 38113 ft 406 kts 352°
2026-04-17 06:07 -21.11506 -70.53998 38112 ft 405 kts 352°
2026-04-17 06:07 -21.05658 -70.53964 38110 ft 405 kts 352°
2026-04-17 06:08 -20.99988 -70.53931 38100 ft 405 kts 352°
2026-04-17 06:08 -20.94365 -70.53898 38085 ft 405 kts 352°
2026-04-17 06:09 -20.88660 -70.53864 38074 ft 405 kts 352°
2026-04-17 06:09 -20.83012 -70.53828 38065 ft 405 kts 352°
2026-04-17 06:10 -20.77325 -70.53790 38035 ft 405 kts 352°
2026-04-17 06:10 -20.74483 -70.53770 37770 ft 404 kts 352°
2026-04-17 06:10 -20.71677 -70.53750 37518 ft 401 kts 352°
2026-04-17 06:10 -20.68882 -70.53730 37266 ft 399 kts 352°
2026-04-17 06:11 -20.66121 -70.53713 37015 ft 396 kts 353°
2026-04-17 06:11 -20.63316 -70.53696 36760 ft 394 kts 353°
2026-04-17 06:11 -20.60594 -70.53683 36512 ft 393 kts 352°
2026-04-17 06:11 -20.57852 -70.53675 36263 ft 393 kts 353°
2026-04-17 06:12 -20.55088 -70.53666 36010 ft 393 kts 353°
2026-04-17 06:12 -20.52375 -70.53654 35761 ft 393 kts 353°
2026-04-17 06:12 -20.49614 -70.53642 35472 ft 394 kts 353°
2026-04-17 06:12 -20.46844 -70.53627 35116 ft 394 kts 353°
2026-04-17 06:13 -20.44105 -70.53612 34656 ft 396 kts 353°
2026-04-17 06:13 -20.41292 -70.53597 34102 ft 396 kts 353°
2026-04-17 06:13 -20.38556 -70.53582 33537 ft 397 kts 353°
2026-04-17 06:13 -20.35789 -70.53570 32850 ft 400 kts 354°
2026-04-17 06:14 -20.32967 -70.53556 32278 ft 401 kts 354°
2026-04-17 06:14 -20.30139 -70.53540 31677 ft 402 kts 355°
2026-04-17 06:14 -20.27374 -70.53523 31081 ft 404 kts 355°
2026-04-17 06:14 -20.24557 -70.53507 30475 ft 406 kts 356°
2026-04-17 06:15 -20.21722 -70.53488 29870 ft 407 kts 356°
2026-04-17 06:15 -20.18877 -70.53470 29269 ft 408 kts 356°
2026-04-17 06:15 -20.16043 -70.53450 28684 ft 409 kts 357°
2026-04-17 06:15 -20.13208 -70.53429 28173 ft 407 kts 357°
2026-04-17 06:16 -20.10390 -70.53407 27702 ft 405 kts 358°
2026-04-17 06:16 -20.07580 -70.53387 27249 ft 402 kts 358°
2026-04-17 06:16 -20.04802 -70.53368 26806 ft 398 kts 358°
2026-04-17 06:16 -20.01995 -70.53351 26361 ft 395 kts 359°
2026-04-17 06:17 -19.99264 -70.53410 25925 ft 392 kts 355°
2026-04-17 06:17 -19.96563 -70.53650 25509 ft 388 kts 352°
2026-04-17 06:17 -19.93855 -70.53986 25086 ft 384 kts 352°
2026-04-17 06:17 -19.91199 -70.54322 24667 ft 382 kts 352°
2026-04-17 06:18 -19.88528 -70.54657 24245 ft 379 kts 353°
2026-04-17 06:18 -19.85950 -70.54978 23838 ft 376 kts 353°
2026-04-17 06:18 -19.83330 -70.55301 23425 ft 373 kts 353°
2026-04-17 06:18 -19.80736 -70.55620 23016 ft 371 kts 353°
2026-04-17 06:19 -19.78186 -70.55934 22613 ft 368 kts 353°
2026-04-17 06:19 -19.75636 -70.56248 22208 ft 366 kts 353°
2026-04-17 06:19 -19.73088 -70.56563 21802 ft 363 kts 353°
2026-04-17 06:19 -19.70607 -70.56869 21407 ft 361 kts 353°
2026-04-17 06:20 -19.68112 -70.57176 21006 ft 359 kts 353°
2026-04-17 06:20 -19.65645 -70.57481 20611 ft 357 kts 353°
2026-04-17 06:20 -19.63161 -70.57787 20212 ft 354 kts 353°
2026-04-17 06:20 -19.60733 -70.58085 19823 ft 352 kts 353°
2026-04-17 06:21 -19.58324 -70.58381 19436 ft 350 kts 353°
2026-04-17 06:21 -19.55872 -70.58682 19042 ft 348 kts 353°
2026-04-17 06:21 -19.53500 -70.58972 18661 ft 345 kts 353°
2026-04-17 06:21 -19.51068 -70.59271 18271 ft 343 kts 353°
2026-04-17 06:22 -19.48727 -70.59560 17898 ft 341 kts 353°
2026-04-17 06:22 -19.46352 -70.59849 17518 ft 339 kts 355°
2026-04-17 06:22 -19.43985 -70.59932 17148 ft 336 kts
2026-04-17 06:22 -19.41541 -70.59633 16768 ft 334 kts 11°
2026-04-17 06:23 -19.39194 -70.59104 16390 ft 331 kts 13°
2026-04-17 06:23 -19.36907 -70.58541 16031 ft 329 kts 13°
2026-04-17 06:23 -19.34701 -70.57996 15670 ft 327 kts 13°
2026-04-17 06:23 -19.32358 -70.57422 15201 ft 327 kts 13°
2026-04-17 06:24 -19.29992 -70.56847 14773 ft 326 kts 13°
2026-04-17 06:24 -19.27613 -70.56273 14368 ft 324 kts 13°
2026-04-17 06:24 -19.25419 -70.55743 13998 ft 322 kts 13°
2026-04-17 06:24 -19.23241 -70.55221 13641 ft 319 kts 13°
2026-04-17 06:25 -19.21103 -70.54708 13299 ft 317 kts 13°
2026-04-17 06:25 -19.18954 -70.54192 12966 ft 314 kts 13°
2026-04-17 06:25 -19.16782 -70.53672 12617 ft 311 kts 13°
2026-04-17 06:25 -19.14693 -70.53172 12273 ft 309 kts 13°
2026-04-17 06:26 -19.12600 -70.52669 11929 ft 307 kts 13°
2026-04-17 06:26 -19.10548 -70.52177 11582 ft 305 kts 12°
2026-04-17 06:26 -19.08480 -70.51681 11235 ft 304 kts 13°
2026-04-17 06:26 -19.06434 -70.51189 10890 ft 302 kts 12°
2026-04-17 06:27 -19.04395 -70.50701 10551 ft 300 kts 12°
2026-04-17 06:27 -19.02344 -70.50211 10203 ft 298 kts 13°
2026-04-17 06:27 -19.00350 -70.49734 9926 ft 294 kts 13°
2026-04-17 06:27 -18.98376 -70.49289 9777 ft 287 kts 11°
2026-04-17 06:28 -18.96380 -70.48903 9453 ft 285 kts 10°
2026-04-17 06:28 -18.94416 -70.48532 9137 ft 283 kts 10°
2026-04-17 06:28 -18.92481 -70.48166 8826 ft 281 kts 10°
2026-04-17 06:28 -18.90582 -70.47805 8519 ft 279 kts 10°
2026-04-17 06:29 -18.88648 -70.47437 8203 ft 277 kts 10°
2026-04-17 06:29 -18.86643 -70.47057 7875 ft 276 kts 10°
2026-04-17 06:29 -18.84751 -70.46697 7570 ft 274 kts 10°
2026-04-17 06:29 -18.82880 -70.46339 7269 ft 272 kts 10°
2026-04-17 06:30 -18.81025 -70.45984 6970 ft 270 kts 10°
2026-04-17 06:30 -18.79164 -70.45627 6671 ft 268 kts 10°
2026-04-17 06:30 -18.77336 -70.45277 6376 ft 267 kts 10°
2026-04-17 06:30 -18.75509 -70.44926 6086 ft 265 kts 10°
2026-04-17 06:31 -18.73704 -70.44579 5799 ft 263 kts 10°
2026-04-17 06:31 -18.71910 -70.44235 5510 ft 262 kts 10°
2026-04-17 06:31 -18.70137 -70.43895 5220 ft 260 kts 10°
2026-04-17 06:31 -18.68340 -70.43550 4927 ft 259 kts 10°
2026-04-17 06:32 -18.66575 -70.43211 4641 ft 258 kts 10°
2026-04-17 06:32 -18.64839 -70.42879 4360 ft 256 kts 10°
2026-04-17 06:32 -18.63058 -70.42536 4073 ft 255 kts 10°
2026-04-17 06:32 -18.61291 -70.42197 3790 ft 254 kts 10°
2026-04-17 06:33 -18.59526 -70.41859 3538 ft 252 kts 10°
2026-04-17 06:33 -18.57742 -70.41517 3491 ft 237 kts 10°
2026-04-17 06:33 -18.56048 -70.41192 3473 ft 221 kts 11°
2026-04-17 06:33 -18.54474 -70.40891 3478 ft 212 kts 11°
2026-04-17 06:34 -18.52934 -70.40525 3517 ft 208 kts 17°
2026-04-17 06:34 -18.51511 -70.40028 3470 ft 200 kts 19°
2026-04-17 06:34 -18.50173 -70.39529 3244 ft 198 kts 20°
2026-04-17 06:34 -18.48844 -70.39032 3012 ft 197 kts 20°
2026-04-17 06:35 -18.47542 -70.38548 2766 ft 197 kts 19°
2026-04-17 06:35 -18.46212 -70.38057 2474 ft 195 kts 19°
2026-04-17 06:35 -18.44894 -70.37572 2207 ft 194 kts 19°
2026-04-17 06:35 -18.43628 -70.37107 1884 ft 192 kts 19°
2026-04-17 06:36 -18.42381 -70.36649 1584 ft 182 kts 19°
2026-04-17 06:36 -18.41212 -70.36219 1299 ft 169 kts 19°
2026-04-17 06:36 -18.40111 -70.35815 1044 ft 156 kts 19°
2026-04-17 06:36 -18.39135 -70.35456 820 ft 143 kts 19°
2026-04-17 06:37 -18.38207 -70.35107 651 ft 141 kts 19°
2026-04-17 06:37 -18.37274 -70.34760 484 ft 141 kts 19°
2026-04-17 06:37 -18.36303 -70.34405 300 ft 140 kts 18°
2026-04-17 06:37 -18.35302 -70.34040 172 ft 131 kts 18°
2026-04-17 06:38 -18.34641 -70.33797 184 ft 63 kts 19°
2026-04-17 06:38 -18.34274 -70.33662 189 ft 41 kts 19°
2026-04-17 06:38 -18.34100 -70.33598 192 ft 20 kts 19°
2026-04-17 06:38 -18.33988 -70.33556 193 ft 18 kts 30°
2026-04-17 06:39 -18.33955 -70.33495 196 ft 7 kts 95°
2026-04-17 06:39 -18.33970 -70.33451 198 ft 5 kts 121°
2026-04-17 06:39 -18.33995 -70.33422 199 ft 5 kts 142°
2026-04-17 06:39 -18.34032 -70.33404 199 ft 6 kts 168°
2026-04-17 06:40 -18.34083 -70.33411 199 ft 9 kts 198°
2026-04-17 06:40 -18.34154 -70.33437 198 ft 12 kts 199°
2026-04-17 06:40 -18.34247 -70.33471 197 ft 15 kts 199°
2026-04-17 06:40 -18.34353 -70.33510 195 ft 16 kts 199°
2026-04-17 06:41 -18.34458 -70.33548 194 ft 15 kts 199°
2026-04-17 06:41 -18.34561 -70.33586 192 ft 15 kts 199°
2026-04-17 06:41 -18.34662 -70.33623 191 ft 15 kts 198°
2026-04-17 06:41 -18.34764 -70.33660 189 ft 15 kts 200°
2026-04-17 06:42 -18.34847 -70.33691 188 ft 8 kts 199°
2026-04-17 06:42 -18.34887 -70.33672 189 ft 6 kts 113°
2026-04-17 06:42 -18.34901 -70.33641 190 ft 3 kts 117°
2026-04-17 06:42 -18.34903 -70.33638 190 ft 0 kts 117°